This demonstration page uses our WeatherBlox Daily Observations layout. Learn more.

Left ArrowRight Arrow

Hourly Observations for September 28, 2019

Temp ( °F °C ) Dew Point ( °F °C ) Humidity (%) Winds ( mph kmh ) Pressure ( in mb ) Visibility ( mi km ) Precip ( " mm )
12:53 am 00:53 Clear 55 12.8 48 8.9 77 77 NE 8 13 29.96 1015 10 16 0.00 0.00
1:53 am 01:53 Clear 54 12.2 47 8.3 77 77 ENE 9 15 29.95 1014 10 16 0.00 0.00
2:53 am 02:53 Clear 52 11.1 46 7.8 80 80 NE 8 13 29.98 1015 10 16 0.00 0.00
3:53 am 03:53 Clear 52 11.1 46 7.8 80 80 NNE 10 17 29.99 1016 10 16 0.00 0.00
4:53 am 04:53 Clear 51 10.6 46 7.8 83 83 NE 12 19 29.99 1016 10 16 0.00 0.00
5:53 am 05:53 Clear 50 10 47 8.3 89 89 ENE 12 19 29.99 1016 10 16 0.00 0.00
6:42 am 06:42 Mostly Clear 50 10 47 8.3 89 89 NE 13 20 30.04 1017 10 16 0.00 0.00
6:53 am 06:53 Mostly Clear 50 10 47 8.3 89 89 NE 10 17 30.01 1016 10 16 0.00 0.00
7:53 am 07:53 Sunny 50 10 46 7.8 86 86 ENE 7 11 30.02 1017 10 16 0.00 0.00
8:53 am 08:53 Sunny 52 11.1 46 7.8 80 80 ENE 13 20 30.04 1017 10 16 0.00 0.00
9:53 am 09:53 Sunny 55 12.8 45 7.2 69 69 NE 12 19 30.06 1018 10 16 0.00 0.00
10:53 am 10:53 Sunny 58 14.4 45 7.2 62 62 ENE 13 20 30.05 1018 10 16 0.00 0.00
11:53 am 11:53 Mostly Cloudy 59 15 46 7.8 62 62 E 9 15 30.07 1018 10 16 0.00 0.00
12:53 pm 12:53 Cloudy 61 16.1 47 8.3 60 60 ENE 14 22 30.04 1017 10 16 0.00 0.00
1:21 pm 13:21 Cloudy 62 16.7 49 9.4 62 62 ENE 10 17 30.00 1016 10 16 0.00 0.00
1:53 pm 13:53 Cloudy with Light Rain 60 15.6 50 10 70 70 E 12 19 30.01 1016 10 16 0.00 0.00
2:53 pm 14:53 Cloudy with Light Rain 60 15.6 52 11.1 75 75 ENE 10 17 29.98 1015 10 16 0.00 0.00
3:53 pm 15:53 Cloudy 61 16.1 52 11.1 72 72 ESE 12 19 29.97 1015 10 16 0.00 0.00
4:53 pm 16:53 Cloudy with Light Rain 59 15 53 11.7 81 81 E 16 26 29.93 1014 10 16 0.00 0.00
5:53 pm 17:53 Cloudy 60 15.6 53 11.7 78 78 E 10 17 29.93 1014 10 16 0.00 0.00
6:53 pm 18:53 Cloudy 60 15.6 54 12.2 80 80 E 10 17 29.95 1014 10 16 0.00 0.00
7:28 pm 19:28 Cloudy with Mist and Fog 59 15 55 12.8 87 87 E 8 13 29.94 1014 4 6 0.00 0.00
7:42 pm 19:42 Cloudy with Mist and Fog 59 15 55 13 88 88 E 6 9 29.94 1014 2 3 0.00 0.00
7:53 pm 19:53 Cloudy with Mist and Fog 59 15 56 13.3 90 90 ESE 6 9 29.97 1015 2 3 0.00 0.00
8:06 pm 20:06 Cloudy with Mist and Fog 59 15 57 14 94 94 ESE 6 9 29.95 1014 2 3 0.00 0.00
8:13 pm 20:13 Cloudy with Mist and Fog 59 15 57 13.9 93 93 SE 9 15 29.94 1014 2 3 0.00 0.00
8:25 pm 20:25 Cloudy with Mist and Fog 59 15 57 13.9 93 93 ESE 12 19 29.93 1014 2 3 0.00 0.00
8:53 pm 20:53 Cloudy with Mist and Fog 59 15 57 13.9 93 93 SE 9 15 29.96 1015 3 5 0.00 0.00
9:46 pm 21:46 Cloudy with Mist and Fog 59 15 57 14 94 94 SE 9 15 29.94 1014 4 6 0.00 0.00
9:53 pm 21:53 Cloudy with Mist and Fog 59 15 57 13.9 93 93 SE 8 13 29.97 1015 4 6 0.00 0.00
10:13 pm 22:13 Cloudy with Mist and Fog 59 15 57 13.9 93 93 SE 9 15 29.95 1014 3 4 0.00 0.00
10:25 pm 22:25 Cloudy with Mist and Fog 58 14.4 57 13.9 97 97 SE 9 15 29.96 1014 3 5 0.00 0.00
10:53 pm 22:53 Cloudy with Mist and Fog 58 14.4 57 13.9 97 97 SE 7 11 29.97 1015 2 3 0.00 0.00
11:53 pm 23:53 Cloudy with Mist and Fog 58 14.4 57 13.9 97 97 ESE 9 15 29.95 1014 2 3 0.00 0.00

Powered by AerisWeather